QPF
0.02 0.01 0.01 0.00 0.00 0.00 0.00 0.00 0.00 0.00 0.00 0.00 0.00 0.00 0.00 0.00 0.00 0.00 0.00 0.00 0.00 0.00 0.00 0.00 0.00 0.00 0.00 0.01 0.01 0.01 0.00 0.01 0.01 0.01 0.02 0.02 0.03 0.03 0.03 0.06 0.07 0.04 0.07
0.01 0.00 0.01 0.00 0.00 0.00 0.00 0.00 0.00 0.00 0.00 0.00 0.00 0.00 0.00 0.00 0.00 0.00 0.00 0.00 0.00 0.00 0.00 0.00 0.00 0.00 0.00 0.01 0.01 0.00 0.00 0.00 0.01 0.03 0.04 0.04 0.04 0.04 0.04 0.07 0.06 0.04 0.07
0.01 0.00 0.00 0.00 0.00 0.00 0.00 0.00 0.00 0.00 0.00 0.00 0.00 0.00 0.00 0.00 0.00 0.00 0.00 0.00 0.00 0.00 0.00 0.00 0.00 0.00 0.00 0.00 0.00 0.00 0.00 0.00 0.03 0.05 0.06 0.06 0.04 0.04 0.04 0.06 0.06 0.04 0.06
0.01 0.00 0.00 0.00 0.00 0.00 0.00 0.00 0.00 0.00 0.00 0.00 0.00 0.00 0.00 0.00 0.00 0.00 0.00 0.00 0.00 0.00 0.00 0.00 0.00 0.00 0.00 0.00 0.01 0.01 0.01 0.01 0.03 0.06 0.06 0.08 0.04 0.04 0.06 0.07 0.06 0.05 0.05
0.00 0.00 0.00 0.00 0.00 0.00 0.00 0.00 0.00 0.00 0.00 0.00 0.00 0.00 0.00 0.00 0.00 0.00 0.00 0.00 0.01 0.00 0.00 0.00 0.00 0.00 0.00 0.00 0.00 0.00 0.01 0.02 0.03 0.05 0.06 0.04 0.04 0.07 0.08 0.07 0.08 0.05 0.04
0.01 0.01 0.01 0.01 0.01 0.01 0.01 0.00 0.00 0.00 0.00 0.00 0.00 0.00 0.00 0.00 0.00 0.00 0.00 0.00 0.00 0.00 0.00 0.00 0.00 0.00 0.00 0.00 0.00 0.00 0.01 0.01 0.03 0.04 0.06 0.04 0.03 0.07 0.07 0.06 0.06 0.07 0.06
0.04 0.02 0.02 0.02 0.02 0.01 0.01 0.01 0.01 0.00 0.00 0.00 0.00 0.00 0.00 0.00 0.00 0.00 0.00 0.00 0.00 0.00 0.00 0.00 0.00 0.00 0.00 0.00 0.00 0.00 0.00 0.01 0.02 0.05 0.07 0.04 0.03 0.06 0.05 0.04 0.04 0.05 0.05
0.10 0.07 0.04 0.05 0.05 0.04 0.03 0.02 0.02 0.01 0.01 0.00 0.00 0.00 0.00 0.00 0.00 0.00 0.00 0.00 0.00 0.00 0.00 0.00 0.00 0.00 0.00 0.00 0.00 0.00 0.00 0.02 0.03 0.08 0.07 0.03 0.05 0.06 0.04 0.03 0.03 0.03 0.05
0.17 0.15 0.11 0.10 0.09 0.09 0.08 0.07 0.05 0.04 0.03 0.02 0.02 0.01 0.01 0.00 0.00 0.00 0.00 0.00 0.00 0.00 0.00 0.00 0.00 0.00 0.00 0.00 0.00 0.00 0.01 0.02 0.03 0.08 0.07 0.04 0.07 0.06 0.05 0.03 0.02 0.02 0.03
0.16 0.18 0.16 0.16 0.17 0.14 0.12 0.12 0.10 0.08 0.07 0.05 0.03 0.02 0.02 0.01 0.01 0.01 0.00 0.00 0.00 0.00 0.00 0.00 0.00 0.00 0.00 0.00 0.00 0.00 0.01 0.02 0.05 0.07 0.06 0.05 0.07 0.05 0.04 0.03 0.02 0.01 0.02
0.11 0.13 0.16 0.18 0.21 0.21 0.17 0.14 0.16 0.14 0.11 0.08 0.06 0.06 0.04 0.01 0.01 0.01 0.02 0.02 0.01 0.00 0.00 0.00 0.00 0.00 0.00 0.00 0.00 0.01 0.01 0.02 0.07 0.08 0.05 0.08 0.08 0.04 0.03 0.03 0.01 0.01 0.01
0.10 0.12 0.13 0.12 0.13 0.17 0.21 0.18 0.17 0.13 0.11 0.08 0.06 0.07 0.06 0.03 0.02 0.02 0.03 0.05 0.04 0.02 0.01 0.00 0.00 0.00 0.00 0.00 0.00 0.01 0.01 0.04 0.09 0.08 0.06 0.08 0.07 0.04 0.03 0.03 0.02 0.01 0.01
0.11 0.10 0.10 0.09 0.11 0.14 0.15 0.18 0.17 0.15 0.16 0.15 0.12 0.09 0.08 0.09 0.08 0.05 0.04 0.05 0.04 0.03 0.01 0.00 0.00 0.00 0.00 0.00 0.00 0.01 0.01 0.04 0.07 0.07 0.05 0.06 0.05 0.03 0.02 0.02 0.02 0.01 0.02
0.09 0.09 0.08 0.07 0.08 0.10 0.13 0.14 0.14 0.16 0.18 0.16 0.15 0.15 0.14 0.17 0.14 0.10 0.06 0.04 0.03 0.02 0.01 0.00 0.00 0.00 0.00 0.01 0.01 0.01 0.02 0.04 0.06 0.06 0.04 0.04 0.04 0.04 0.02 0.01 0.01 0.01 0.01
0.03 0.04 0.05 0.05 0.05 0.07 0.09 0.10 0.12 0.14 0.20 0.21 0.16 0.15 0.14 0.20 0.20 0.15 0.12 0.10 0.07 0.04 0.03 0.02 0.01 0.01 0.02 0.01 0.01 0.01 0.02 0.05 0.05 0.04 0.02 0.03 0.03 0.03 0.02 0.01 0.01 0.01 0.02
0.01 0.01 0.01 0.02 0.02 0.03 0.05 0.07 0.06 0.08 0.11 0.12 0.14 0.24 0.26 0.23 0.20 0.17 0.15 0.13 0.13 0.10 0.07 0.05 0.02 0.03 0.02 0.01 0.00 0.01 0.01 0.02 0.03 0.02 0.01 0.01 0.01 0.02 0.02 0.02 0.01 0.01 0.02
0.00 0.00 0.00 0.00 0.01 0.01 0.02 0.02 0.03 0.04 0.06 0.08 0.09 0.16 0.30 0.29 0.22 0.19 0.17 0.15 0.14 0.16 0.13 0.08 0.05 0.03 0.02 0.01 0.01 0.01 0.01 0.01 0.01 0.01 0.01 0.01 0.01 0.01 0.01 0.02 0.01 0.01 0.01
0.00 0.00 0.00 0.00 0.00 0.00 0.00 0.00 0.01 0.01 0.02 0.04 0.06 0.10 0.16 0.22 0.23 0.25 0.21 0.18 0.17 0.17 0.15 0.12 0.08 0.05 0.03 0.03 0.02 0.01 0.01 0.01 0.01 0.01 0.01 0.02 0.01 0.01 0.01 0.01 0.01 0.01 0.02
0.00 0.00 0.00 0.00 0.00 0.00 0.00 0.00 0.01 0.01 0.01 0.02 0.03 0.04 0.08 0.14 0.23 0.31 0.26 0.23 0.22 0.21 0.18 0.14 0.12 0.08 0.07 0.04 0.03 0.02 0.01 0.01 0.01 0.01 0.02 0.02 0.02 0.01 0.01 0.01 0.01 0.01 0.01
0.00 0.00 0.00 0.00 0.00 0.00 0.00 0.00 0.01 0.01 0.01 0.01 0.02 0.02 0.05 0.08 0.14 0.22 0.21 0.20 0.22 0.23 0.20 0.18 0.16 0.13 0.10 0.07 0.04 0.03 0.03 0.02 0.02 0.03 0.03 0.03 0.03 0.03 0.03 0.01 0.01 0.01 0.01
0.00 0.00 0.00 0.00 0.00 0.00 0.00 0.00 0.01 0.01 0.01 0.01 0.01 0.02 0.03 0.05 0.10 0.16 0.18 0.17 0.17 0.16 0.14 0.14 0.16 0.14 0.11 0.09 0.07 0.05 0.06 0.06 0.04 0.04 0.04 0.04 0.04 0.04 0.05 0.03 0.02 0.02 0.01
0.00 0.00 0.00 0.00 0.00 0.00 0.01 0.01 0.01 0.01 0.00 0.01 0.01 0.02 0.03 0.03 0.06 0.09 0.13 0.14 0.15 0.16 0.16 0.15 0.13 0.13 0.12 0.09 0.08 0.06 0.06 0.07 0.06 0.05 0.05 0.05 0.05 0.06 0.07 0.05 0.04 0.03 0.02
0.00 0.00 0.00 0.00 0.00 0.01 0.01 0.01 0.00 0.00 0.01 0.01 0.01 0.01 0.03 0.04 0.04 0.05 0.07 0.10 0.14 0.16 0.15 0.14 0.13 0.12 0.12 0.10 0.08 0.07 0.04 0.03 0.04 0.06 0.08 0.10 0.11 0.09 0.09 0.09 0.08 0.07 0.04
0.00 0.01 0.01 0.01 0.01 0.01 0.01 0.01 0.01 0.01 0.02 0.03 0.02 0.01 0.02 0.04 0.04 0.04 0.05 0.08 0.12 0.15 0.15 0.14 0.14 0.12 0.12 0.11 0.11 0.09 0.06 0.03 0.02 0.03 0.06 0.10 0.13 0.12 0.11 0.12 0.12 0.11 0.08
0.00 0.01 0.01 0.01 0.01 0.01 0.01 0.02 0.02 0.02 0.02 0.05 0.06 0.05 0.04 0.04 0.04 0.05 0.05 0.08 0.10 0.11 0.15 0.15 0.15 0.13 0.10 0.10 0.11 0.11 0.10 0.06 0.04 0.02 0.03 0.09 0.13 0.13 0.14 0.13 0.12 0.13 0.13
0.00 0.01 0.02 0.02 0.01 0.01 0.01 0.02 0.04 0.05 0.04 0.06 0.11 0.09 0.06 0.07 0.07 0.06 0.05 0.07 0.08 0.09 0.10 0.13 0.16 0.17 0.16 0.14 0.11 0.09 0.09 0.08 0.06 0.05 0.04 0.05 0.10 0.12 0.13 0.13 0.12 0.13 0.15
MSLP
1015.85 1015.21 1014.76 1014.56 1014.59 1014.79 1015.08 1015.34 1015.51 1015.55 1015.48 1015.36 1015.24 1015.20 1015.25 1015.40 1015.63 1015.87 1016.08 1016.22 1016.28 1016.28 1016.24 1016.20 1016.18 1016.19 1016.24 1016.29 1016.32 1016.32 1016.28 1016.22 1016.14 1016.07 1016.01 1015.97 1015.94 1015.92 1015.88 1015.83 1015.77 1015.71 1015.68
1015.58 1015.06 1014.71 1014.59 1014.68 1014.90 1015.18 1015.43 1015.57 1015.59 1015.52 1015.41 1015.32 1015.29 1015.37 1015.53 1015.74 1015.96 1016.15 1016.26 1016.31 1016.31 1016.28 1016.25 1016.24 1016.26 1016.30 1016.33 1016.33 1016.31 1016.26 1016.20 1016.13 1016.09 1016.07 1016.07 1016.08 1016.07 1016.04 1015.98 1015.91 1015.85 1015.81
1015.25 1014.85 1014.61 1014.59 1014.74 1015.01 1015.30 1015.54 1015.67 1015.69 1015.64 1015.54 1015.48 1015.47 1015.55 1015.70 1015.88 1016.05 1016.18 1016.25 1016.26 1016.25 1016.22 1016.21 1016.21 1016.24 1016.28 1016.30 1016.29 1016.26 1016.21 1016.15 1016.12 1016.12 1016.14 1016.19 1016.22 1016.24 1016.21 1016.16 1016.08 1016.01 1015.98
1014.92 1014.63 1014.51 1014.59 1014.81 1015.11 1015.41 1015.65 1015.79 1015.82 1015.77 1015.71 1015.66 1015.68 1015.75 1015.87 1015.99 1016.10 1016.16 1016.17 1016.15 1016.12 1016.09 1016.09 1016.12 1016.17 1016.21 1016.24 1016.23 1016.20 1016.16 1016.12 1016.12 1016.16 1016.23 1016.31 1016.38 1016.41 1016.40 1016.34 1016.27 1016.20 1016.16
1014.65 1014.46 1014.44 1014.59 1014.87 1015.20 1015.51 1015.74 1015.87 1015.91 1015.88 1015.84 1015.82 1015.84 1015.90 1015.99 1016.07 1016.11 1016.11 1016.06 1016.00 1015.95 1015.93 1015.95 1016.01 1016.08 1016.15 1016.19 1016.19 1016.17 1016.14 1016.13 1016.16 1016.23 1016.33 1016.44 1016.53 1016.57 1016.56 1016.51 1016.43 1016.37 1016.34
1014.49 1014.38 1014.43 1014.64 1014.95 1015.28 1015.57 1015.78 1015.89 1015.92 1015.90 1015.88 1015.88 1015.92 1015.98 1016.04 1016.08 1016.08 1016.02 1015.94 1015.86 1015.80 1015.80 1015.84 1015.93 1016.03 1016.12 1016.17 1016.19 1016.18 1016.17 1016.17 1016.22 1016.31 1016.43 1016.55 1016.65 1016.70 1016.69 1016.63 1016.56 1016.50 1016.48
1014.50 1014.43 1014.52 1014.75 1015.05 1015.35 1015.60 1015.76 1015.83 1015.84 1015.82 1015.81 1015.83 1015.88 1015.96 1016.02 1016.04 1016.01 1015.94 1015.84 1015.75 1015.70 1015.71 1015.78 1015.89 1016.02 1016.13 1016.20 1016.22 1016.22 1016.22 1016.23 1016.29 1016.38 1016.51 1016.63 1016.73 1016.77 1016.75 1016.70 1016.62 1016.57 1016.56
1014.69 1014.63 1014.72 1014.93 1015.18 1015.42 1015.60 1015.68 1015.69 1015.66 1015.63 1015.62 1015.67 1015.75 1015.85 1015.93 1015.96 1015.94 1015.87 1015.77 1015.69 1015.66 1015.69 1015.77 1015.91 1016.05 1016.16 1016.24 1016.27 1016.27 1016.27 1016.29 1016.34 1016.43 1016.55 1016.67 1016.75 1016.78 1016.77 1016.71 1016.64 1016.60 1016.60
1015.04 1014.96 1015.02 1015.18 1015.36 1015.50 1015.58 1015.57 1015.51 1015.43 1015.37 1015.38 1015.44 1015.56 1015.69 1015.80 1015.86 1015.86 1015.81 1015.73 1015.67 1015.65 1015.69 1015.79 1015.93 1016.07 1016.19 1016.26 1016.29 1016.29 1016.28 1016.30 1016.35 1016.43 1016.54 1016.65 1016.73 1016.76 1016.74 1016.69 1016.64 1016.60 1016.62
1015.50 1015.38 1015.39 1015.47 1015.56 1015.60 1015.56 1015.46 1015.32 1015.19 1015.10 1015.10 1015.19 1015.33 1015.50 1015.65 1015.74 1015.77 1015.75 1015.70 1015.65 1015.65 1015.70 1015.80 1015.93 1016.06 1016.17 1016.23 1016.26 1016.25 1016.24 1016.26 1016.30 1016.39 1016.49 1016.60 1016.68 1016.72 1016.71 1016.68 1016.65 1016.63 1016.66
1016.00 1015.84 1015.79 1015.78 1015.76 1015.69 1015.55 1015.35 1015.14 1014.96 1014.85 1014.85 1014.94 1015.10 1015.29 1015.47 1015.60 1015.65 1015.66 1015.63 1015.60 1015.60 1015.65 1015.75 1015.86 1015.98 1016.08 1016.13 1016.15 1016.15 1016.14 1016.16 1016.21 1016.30 1016.41 1016.53 1016.62 1016.68 1016.70 1016.70 1016.69 1016.71 1016.76
1016.47 1016.27 1016.15 1016.06 1015.95 1015.77 1015.53 1015.26 1014.98 1014.76 1014.63 1014.61 1014.70 1014.87 1015.08 1015.27 1015.41 1015.49 1015.50 1015.49 1015.48 1015.49 1015.54 1015.62 1015.73 1015.84 1015.92 1015.97 1015.99 1015.99 1016.00 1016.03 1016.09 1016.19 1016.31 1016.45 1016.56 1016.65 1016.71 1016.75 1016.79 1016.84 1016.92
1016.86 1016.63 1016.45 1016.29 1016.08 1015.81 1015.50 1015.16 1014.84 1014.58 1014.43 1014.40 1014.48 1014.64 1014.83 1015.01 1015.15 1015.24 1015.27 1015.27 1015.28 1015.30 1015.35 1015.44 1015.54 1015.64 1015.72 1015.77 1015.80 1015.81 1015.83 1015.87 1015.95 1016.07 1016.21 1016.36 1016.51 1016.63 1016.74 1016.83 1016.91 1017.01 1017.12
1017.17 1016.91 1016.67 1016.43 1016.14 1015.81 1015.43 1015.04 1014.69 1014.41 1014.24 1014.19 1014.24 1014.37 1014.53 1014.69 1014.82 1014.90 1014.95 1014.97 1014.99 1015.03 1015.11 1015.21 1015.32 1015.42 1015.51 1015.57 1015.61 1015.63 1015.67 1015.73 1015.82 1015.94 1016.10 1016.27 1016.44 1016.61 1016.75 1016.89 1017.02 1017.16 1017.31
1017.40 1017.10 1016.80 1016.49 1016.13 1015.74 1015.32 1014.91 1014.53 1014.24 1014.05 1013.97 1013.98 1014.07 1014.18 1014.31 1014.41 1014.49 1014.54 1014.59 1014.65 1014.73 1014.84 1014.96 1015.09 1015.22 1015.32 1015.39 1015.44 1015.48 1015.53 1015.59 1015.69 1015.82 1015.98 1016.16 1016.35 1016.54 1016.72 1016.90 1017.07 1017.25 1017.43
1017.59 1017.24 1016.88 1016.50 1016.08 1015.64 1015.19 1014.76 1014.38 1014.08 1013.86 1013.75 1013.71 1013.74 1013.80 1013.88 1013.95 1014.02 1014.09 1014.18 1014.28 1014.41 1014.57 1014.73 1014.90 1015.05 1015.17 1015.25 1015.31 1015.36 1015.41 1015.47 1015.57 1015.69 1015.85 1016.03 1016.21 1016.41 1016.61 1016.82 1017.03 1017.24 1017.45
1017.78 1017.37 1016.94 1016.49 1016.02 1015.55 1015.08 1014.65 1014.26 1013.95 1013.71 1013.55 1013.46 1013.42 1013.41 1013.44 1013.48 1013.55 1013.64 1013.76 1013.92 1014.11 1014.32 1014.53 1014.73 1014.91 1015.04 1015.14 1015.20 1015.25 1015.30 1015.36 1015.45 1015.56 1015.70 1015.86 1016.04 1016.23 1016.44 1016.65 1016.88 1017.11 1017.35
1018.00 1017.53 1017.03 1016.52 1016.01 1015.51 1015.04 1014.60 1014.22 1013.90 1013.63 1013.42 1013.26 1013.15 1013.07 1013.03 1013.04 1013.09 1013.20 1013.36 1013.57 1013.82 1014.08 1014.34 1014.58 1014.77 1014.92 1015.02 1015.09 1015.15 1015.19 1015.25 1015.33 1015.43 1015.55 1015.69 1015.85 1016.02 1016.21 1016.42 1016.64 1016.89 1017.14
1018.25 1017.72 1017.17 1016.61 1016.07 1015.56 1015.09 1014.67 1014.29 1013.96 1013.66 1013.40 1013.17 1012.97 1012.81 1012.70 1012.66 1012.69 1012.80 1012.99 1013.24 1013.53 1013.84 1014.14 1014.40 1014.61 1014.77 1014.88 1014.96 1015.02 1015.07 1015.13 1015.20 1015.30 1015.41 1015.53 1015.66 1015.81 1015.97 1016.16 1016.37 1016.61 1016.87
1018.53 1017.96 1017.36 1016.78 1016.22 1015.72 1015.26 1014.86 1014.49 1014.14 1013.81 1013.49 1013.18 1012.89 1012.64 1012.45 1012.35 1012.34 1012.44 1012.64 1012.91 1013.23 1013.56 1013.88 1014.16 1014.39 1014.56 1014.69 1014.78 1014.85 1014.92 1015.00 1015.09 1015.19 1015.30 1015.41 1015.53 1015.64 1015.77 1015.93 1016.11 1016.33 1016.57
1018.81 1018.20 1017.59 1017.00 1016.45 1015.97 1015.54 1015.16 1014.80 1014.45 1014.08 1013.69 1013.30 1012.91 1012.56 1012.28 1012.10 1012.03 1012.10 1012.27 1012.54 1012.87 1013.21 1013.55 1013.84 1014.09 1014.28 1014.43 1014.55 1014.65 1014.76 1014.88 1015.00 1015.13 1015.25 1015.36 1015.46 1015.55 1015.65 1015.76 1015.90 1016.08 1016.31
1019.02 1018.42 1017.82 1017.25 1016.73 1016.28 1015.88 1015.52 1015.18 1014.81 1014.41 1013.96 1013.48 1013.00 1012.54 1012.16 1011.88 1011.74 1011.74 1011.88 1012.12 1012.44 1012.78 1013.12 1013.44 1013.70 1013.92 1014.11 1014.27 1014.43 1014.59 1014.76 1014.93 1015.10 1015.24 1015.37 1015.46 1015.53 1015.60 1015.67 1015.76 1015.91 1016.10
1019.16 1018.59 1018.02 1017.48 1017.00 1016.59 1016.23 1015.90 1015.56 1015.19 1014.75 1014.24 1013.68 1013.10 1012.53 1012.05 1011.67 1011.44 1011.36 1011.44 1011.64 1011.93 1012.27 1012.62 1012.95 1013.24 1013.51 1013.75 1013.97 1014.19 1014.42 1014.65 1014.88 1015.09 1015.27 1015.41 1015.51 1015.57 1015.61 1015.64 1015.70 1015.80 1015.96
1019.22 1018.69 1018.16 1017.66 1017.23 1016.85 1016.53 1016.22 1015.89 1015.50 1015.03 1014.47 1013.84 1013.17 1012.51 1011.92 1011.44 1011.11 1010.96 1010.97 1011.12 1011.37 1011.70 1012.05 1012.40 1012.74 1013.06 1013.36 1013.64 1013.93 1014.23 1014.52 1014.80 1015.06 1015.28 1015.45 1015.56 1015.62 1015.65 1015.66 1015.68 1015.74 1015.86
1019.21 1018.73 1018.24 1017.79 1017.39 1017.04 1016.74 1016.44 1016.11 1015.72 1015.22 1014.62 1013.94 1013.20 1012.46 1011.78 1011.21 1010.80 1010.56 1010.49 1010.58 1010.80 1011.11 1011.47 1011.84 1012.22 1012.59 1012.95 1013.30 1013.64 1013.99 1014.33 1014.66 1014.96 1015.21 1015.41 1015.55 1015.63 1015.66 1015.67 1015.67 1015.71 1015.79
1019.17 1018.73 1018.28 1017.86 1017.49 1017.16 1016.86 1016.57 1016.24 1015.83 1015.32 1014.70 1013.99 1013.21 1012.42 1011.67 1011.03 1010.53 1010.21 1010.07 1010.10 1010.28 1010.56 1010.91 1011.31 1011.72 1012.12 1012.53 1012.92 1013.30 1013.68 1014.05 1014.41 1014.74 1015.02 1015.25 1015.43 1015.54 1015.61 1015.64 1015.65 1015.68 1015.75
Thickness
5786 5788 5787 5786 5785 5784 5783 5783 5782 5781 5781 5780 5779 5779 5778 5778 5777 5777 5776 5776 5775 5775 5774 5773 5773 5773 5773 5773 5773 5773 5774 5774 5774 5774 5774 5774 5774 5774 5774 5773 5772 5771 5770
5792 5789 5788 5786 5785 5784 5784 5783 5782 5782 5781 5780 5780 5779 5778 5777 5777 5776 5776 5775 5774 5774 5773 5772 5772 5771 5771 5771 5771 5771 5771 5771 5771 5771 5771 5771 5771 5771 5771 5771 5770 5769 5768
5793 5790 5788 5787 5786 5785 5784 5783 5782 5782 5781 5780 5780 5779 5778 5777 5776 5776 5775 5774 5774 5773 5772 5771 5771 5770 5770 5770 5769 5769 5769 5769 5769 5769 5769 5769 5768 5768 5768 5768 5768 5767 5766
5794 5791 5789 5787 5786 5785 5784 5784 5783 5782 5781 5780 5779 5778 5778 5777 5776 5775 5774 5774 5773 5772 5772 5771 5770 5769 5769 5769 5768 5768 5768 5768 5768 5767 5767 5766 5766 5766 5766 5766 5766 5765 5764
5793 5791 5789 5788 5787 5786 5785 5784 5783 5782 5781 5780 5779 5778 5777 5776 5776 5775 5774 5773 5773 5772 5771 5771 5770 5769 5768 5768 5768 5767 5767 5767 5766 5766 5765 5764 5764 5764 5764 5764 5764 5763 5762
5793 5791 5789 5788 5787 5785 5784 5783 5782 5781 5780 5779 5779 5778 5777 5776 5775 5774 5774 5773 5772 5772 5771 5770 5770 5769 5768 5768 5767 5767 5766 5766 5765 5764 5764 5763 5762 5762 5762 5762 5761 5761 5760
5791 5789 5788 5787 5786 5784 5783 5782 5781 5780 5779 5779 5778 5777 5776 5775 5774 5774 5773 5772 5772 5771 5770 5770 5769 5769 5768 5767 5767 5766 5766 5765 5764 5763 5762 5761 5761 5761 5760 5760 5759 5759 5758
5789 5787 5785 5785 5784 5783 5782 5781 5780 5779 5778 5778 5777 5776 5775 5775 5774 5773 5772 5772 5771 5770 5770 5769 5769 5768 5768 5767 5767 5766 5765 5764 5763 5762 5761 5760 5760 5760 5759 5758 5757 5757 5756
5784 5783 5782 5781 5780 5780 5779 5779 5778 5778 5777 5776 5775 5775 5774 5773 5773 5772 5772 5771 5770 5769 5769 5769 5768 5768 5767 5767 5766 5766 5765 5764 5762 5762 5761 5760 5759 5759 5758 5757 5756 5755 5755
5779 5778 5777 5776 5776 5776 5776 5776 5776 5776 5775 5774 5773 5773 5773 5772 5771 5771 5770 5770 5769 5769 5768 5768 5767 5767 5767 5766 5766 5765 5764 5763 5762 5761 5760 5760 5759 5758 5757 5756 5755 5754 5754
5771 5772 5772 5771 5771 5772 5772 5773 5773 5773 5772 5771 5771 5771 5770 5770 5769 5769 5769 5768 5768 5768 5767 5767 5766 5766 5766 5766 5765 5764 5763 5762 5761 5761 5760 5760 5759 5758 5757 5756 5755 5754 5753
5761 5764 5765 5766 5767 5767 5768 5769 5769 5769 5768 5768 5768 5768 5768 5768 5767 5767 5766 5767 5767 5766 5766 5765 5765 5765 5765 5765 5764 5764 5762 5761 5761 5760 5760 5760 5759 5758 5757 5756 5754 5753 5752
5753 5756 5758 5759 5760 5761 5762 5763 5764 5764 5765 5765 5764 5764 5765 5765 5765 5764 5764 5764 5765 5765 5764 5764 5764 5763 5763 5763 5763 5763 5762 5761 5760 5760 5760 5759 5759 5758 5757 5756 5754 5753 5752
5745 5746 5749 5751 5753 5754 5755 5756 5758 5759 5760 5760 5761 5761 5762 5762 5762 5761 5761 5762 5763 5763 5762 5762 5761 5761 5761 5762 5762 5762 5761 5760 5760 5760 5760 5759 5758 5757 5756 5755 5754 5753 5752
5735 5737 5739 5742 5743 5745 5747 5748 5750 5752 5754 5755 5756 5757 5758 5759 5759 5759 5758 5759 5760 5760 5760 5760 5759 5759 5759 5760 5760 5761 5761 5760 5760 5759 5759 5759 5758 5757 5756 5755 5753 5752 5751
5726 5728 5731 5732 5734 5735 5737 5739 5742 5744 5747 5749 5751 5753 5754 5755 5756 5756 5756 5756 5756 5757 5757 5757 5757 5757 5757 5758 5760 5761 5761 5760 5759 5759 5758 5758 5757 5756 5755 5754 5753 5752 5751
5716 5718 5720 5723 5725 5725 5727 5729 5733 5736 5739 5742 5744 5746 5748 5750 5752 5753 5753 5752 5753 5753 5754 5754 5754 5754 5755 5756 5758 5760 5760 5760 5758 5757 5757 5756 5756 5755 5754 5753 5752 5751 5750
5707 5708 5710 5712 5714 5715 5717 5720 5723 5727 5731 5734 5737 5739 5742 5744 5746 5747 5748 5748 5749 5749 5749 5750 5750 5750 5751 5752 5754 5756 5758 5758 5757 5755 5754 5754 5754 5753 5753 5752 5751 5750 5749
5697 5698 5699 5701 5703 5705 5707 5710 5713 5717 5721 5724 5728 5731 5734 5737 5740 5742 5744 5745 5745 5744 5744 5745 5745 5747 5746 5748 5749 5751 5753 5753 5753 5752 5751 5751 5751 5751 5751 5750 5750 5749 5748
5689 5689 5689 5691 5692 5695 5697 5700 5703 5706 5710 5715 5719 5722 5726 5730 5733 5735 5738 5740 5740 5739 5739 5740 5741 5742 5743 5743 5745 5745 5746 5748 5749 5749 5749 5748 5748 5748 5748 5748 5747 5747 5746
5680 5680 5680 5681 5682 5684 5686 5687 5690 5694 5699 5704 5709 5713 5717 5721 5725 5728 5731 5733 5734 5735 5736 5737 5736 5735 5736 5738 5735 5734 5737 5740 5743 5744 5745 5746 5745 5745 5745 5745 5745 5744 5744
5671 5671 5672 5672 5674 5675 5677 5679 5681 5685 5690 5694 5699 5704 5708 5712 5716 5720 5723 5726 5728 5729 5730 5731 5731 5730 5730 5732 5729 5724 5722 5726 5733 5738 5740 5741 5742 5742 5742 5741 5741 5741 5741
5663 5664 5665 5665 5666 5668 5670 5672 5674 5677 5680 5684 5688 5693 5699 5704 5708 5712 5716 5719 5722 5723 5724 5725 5727 5726 5724 5725 5728 5723 5716 5715 5721 5728 5732 5735 5737 5737 5737 5738 5738 5737 5737
5658 5659 5659 5659 5660 5662 5663 5664 5665 5666 5668 5673 5678 5684 5690 5695 5700 5704 5708 5712 5714 5717 5719 5721 5722 5723 5721 5719 5720 5722 5722 5722 5717 5716 5722 5727 5730 5731 5733 5734 5734 5734 5734
5655 5655 5655 5655 5655 5657 5658 5658 5659 5660 5663 5667 5671 5676 5681 5687 5692 5697 5700 5704 5706 5709 5712 5714 5716 5717 5718 5717 5716 5715 5715 5716 5718 5714 5711 5716 5721 5725 5727 5729 5730 5730 5730
5652 5651 5651 5650 5651 5652 5653 5654 5654 5655 5657 5661 5664 5668 5673 5678 5683 5688 5692 5695 5698 5701 5704 5707 5710 5711 5713 5713 5713 5713 5712 5710 5710 5710 5708 5708 5711 5716 5720 5723 5725 5726 5726